Location: Buckeye Ditch
(40.9104°N, 122.9517°W)
Time: 18:31:10
(UTC+00:00)

Vanguard 1 - Pass Details

Date: 20 May 2025
Orbit: 649 x 3822 km, 34.3° (Epoch: 15 June)

Event Time Altitude Azimuth Distance (km) Brightness Sun altitude
Rises 04:17:35 0° 265° (W) 6,602 15.1 -8.9°
Reaches altitude 10° 04:22:44 10° 262° (W) 5,081 14.4 -9.7°
Maximum altitude 04:35:17 58° 189° (S) 1,712 11.1 -11.6°
Enters shadow 04:41:19 15° 114° (ESE) 2,604 11.6 -12.4°
